TimeCST,TemperatureF,Dew PointF,Humidity,Sea Level PressureIn,VisibilityMPH,Wind Direction,Wind SpeedMPH,Gust SpeedMPH,PrecipitationIn,Events,Conditions,WindDirDegrees,DateUTC
12:35 AM,62.6,55.4,77,29.71,10.0,South,13.8,19.6,N/A,,Clear,180,2013-03-05 06:35:00
12:55 AM,60.8,55.4,82,29.73,10.0,South,9.2,16.1,N/A,,Clear,190,2013-03-05 06:55:00
1:15 AM,62.6,55.4,77,29.81,10.0,WNW,6.9,-,N/A,,Mostly Cloudy,300,2013-03-05 07:15:00
1:35 AM,60.8,55.4,82,29.80,10.0,Calm,Calm,-,N/A,,Scattered Clouds,0,2013-03-05 07:35:00
1:55 AM,60.8,55.4,82,29.82,10.0,West,3.5,-,N/A,,Clear,270,2013-03-05 07:55:00
2:15 AM,60.8,55.4,82,29.84,10.0,Calm,Calm,-,N/A,,Scattered Clouds,0,2013-03-05 08:15:00
3:15 AM,55.4,41.0,58,29.91,10.0,NNW,18.4,28.8,N/A,,Overcast,340,2013-03-05 09:15:00
3:35 AM,51.8,39.2,62,29.96,10.0,NNW,20.7,36.8,N/A,,Overcast,330,2013-03-05 09:35:00
3:55 AM,50.0,39.2,66,30.00,10.0,NNW,21.9,33.4,N/A,,Overcast,340,2013-03-05 09:55:00
4:15 AM,50.0,37.4,62,30.01,10.0,North,18.4,27.6,N/A,,Mostly Cloudy,350,2013-03-05 10:15:00
4:55 AM,48.2,35.6,62,30.03,10.0,North,23.0,29.9,N/A,,Clear,350,2013-03-05 10:55:00
5:15 AM,48.2,33.8,58,30.07,10.0,North,18.4,26.5,N/A,,Clear,350,2013-03-05 11:15:00
5:35 AM,48.2,32.0,54,30.09,10.0,North,16.1,28.8,N/A,,Clear,350,2013-03-05 11:35:00
5:55 AM,46.4,32.0,57,30.10,10.0,North,18.4,28.8,N/A,,Clear,350,2013-03-05 11:55:00
6:15 AM,46.4,32.0,57,30.12,10.0,North,13.8,21.9,N/A,,Clear,350,2013-03-05 12:15:00
6:35 AM,46.4,32.0,57,30.13,10.0,North,24.2,29.9,N/A,,Clear,350,2013-03-05 12:35:00
6:55 AM,46.4,32.0,57,30.14,10.0,North,11.5,20.7,N/A,,Clear,350,2013-03-05 12:55:00
7:15 AM,46.4,32.0,57,30.17,10.0,NNW,11.5,23.0,N/A,,Clear,340,2013-03-05 13:15:00
7:35 AM,46.4,32.0,57,30.18,10.0,North,17.3,27.6,N/A,,Clear,360,2013-03-05 13:35:00
7:55 AM,46.4,32.0,57,30.20,10.0,North,18.4,28.8,N/A,,Clear,360,2013-03-05 13:55:00
8:15 AM,46.4,30.2,53,30.21,10.0,North,19.6,36.8,N/A,,Clear,360,2013-03-05 14:15:00
8:35 AM,46.4,32.0,57,30.22,10.0,North,11.5,23.0,N/A,,Clear,350,2013-03-05 14:35:00
8:55 AM,46.4,30.2,53,30.23,10.0,NNW,13.8,26.5,N/A,,Clear,340,2013-03-05 14:55:00
9:15 AM,48.2,28.4,46,30.24,10.0,North,13.8,21.9,N/A,,Clear,360,2013-03-05 15:15:00
9:55 AM,50.0,28.4,43,30.25,10.0,NNW,11.5,21.9,N/A,,Clear,340,2013-03-05 15:55:00
10:15 AM,50.0,30.2,47,30.25,10.0,North,15.0,23.0,N/A,,Clear,350,2013-03-05 16:15:00
10:35 AM,51.8,28.4,41,30.26,10.0,NNW,16.1,23.0,N/A,,Clear,340,2013-03-05 16:35:00
10:55 AM,51.8,26.6,38,30.26,10.0,North,17.3,27.6,N/A,,Clear,350,2013-03-05 16:55:00
11:15 AM,51.8,26.6,38,30.27,10.0,NNW,16.1,27.6,N/A,,Clear,340,2013-03-05 17:15:00
11:35 AM,53.6,26.6,35,30.27,10.0,NNW,13.8,20.7,N/A,,Clear,340,2013-03-05 17:35:00
11:55 AM,53.6,23.0,30,30.27,10.0,North,13.8,21.9,N/A,,Clear,350,2013-03-05 17:55:00
12:15 PM,55.4,21.2,26,30.27,10.0,North,16.1,26.5,N/A,,Clear,360,2013-03-05 18:15:00
12:35 PM,53.6,21.2,28,30.27,10.0,NNW,16.1,26.5,N/A,,Clear,340,2013-03-05 18:35:00
12:55 PM,55.4,23.0,29,30.26,10.0,North,18.4,24.2,N/A,,Clear,360,2013-03-05 18:55:00
1:15 PM,55.4,21.2,26,30.26,10.0,North,19.6,26.5,N/A,,Clear,350,2013-03-05 19:15:00
1:35 PM,55.4,21.2,26,30.26,10.0,North,18.4,27.6,N/A,,Clear,350,2013-03-05 19:35:00
1:55 PM,55.4,21.2,26,30.25,10.0,NNW,18.4,25.3,N/A,,Clear,340,2013-03-05 19:55:00
2:15 PM,55.4,21.2,26,30.25,10.0,North,13.8,19.6,N/A,,Clear,360,2013-03-05 20:15:00
2:35 PM,55.4,21.2,26,30.25,10.0,North,16.1,23.0,N/A,,Clear,360,2013-03-05 20:35:00
2:55 PM,55.4,19.4,25,30.25,10.0,North,12.7,21.9,N/A,,Clear,350,2013-03-05 20:55:00
3:15 PM,55.4,19.4,25,30.25,10.0,NNW,15.0,23.0,N/A,,Clear,340,2013-03-05 21:15:00
3:35 PM,55.4,19.4,25,30.25,10.0,NNW,15.0,20.7,N/A,,Clear,330,2013-03-05 21:35:00
3:55 PM,55.4,19.4,25,30.25,10.0,North,13.8,18.4,N/A,,Clear,350,2013-03-05 21:55:00
4:15 PM,55.4,19.4,25,30.25,10.0,North,15.0,21.9,N/A,,Clear,350,2013-03-05 22:15:00
4:35 PM,55.4,19.4,25,30.25,10.0,NNW,15.0,19.6,N/A,,Clear,330,2013-03-05 22:35:00
4:55 PM,55.4,19.4,25,30.26,10.0,NNW,11.5,17.3,N/A,,Clear,330,2013-03-05 22:55:00
5:15 PM,55.4,19.4,25,30.26,10.0,NNW,8.1,17.3,N/A,,Clear,330,2013-03-05 23:15:00
5:35 PM,53.6,19.4,26,30.27,10.0,NNW,9.2,-,N/A,,Clear,330,2013-03-05 23:35:00
5:55 PM,53.6,19.4,26,30.27,10.0,NNW,11.5,16.1,N/A,,Clear,330,2013-03-05 23:55:00
6:15 PM,51.8,19.4,28,30.28,10.0,NNW,9.2,-,N/A,,Clear,330,2013-03-06 00:15:00
6:35 PM,51.8,19.4,28,30.28,10.0,NNW,6.9,-,N/A,,Clear,330,2013-03-06 00:35:00
6:55 PM,50.0,19.4,30,30.29,10.0,NNW,5.8,-,N/A,,Clear,330,2013-03-06 00:55:00
7:15 PM,50.0,19.4,30,30.30,10.0,NW,4.6,-,N/A,,Clear,320,2013-03-06 01:15:00
7:35 PM,48.2,21.2,34,30.31,10.0,NW,4.6,-,N/A,,Clear,320,2013-03-06 01:35:00
7:55 PM,48.2,21.2,34,30.32,10.0,NNW,4.6,-,N/A,,Clear,330,2013-03-06 01:55:00
8:15 PM,48.2,19.4,32,30.32,10.0,NNW,5.8,-,N/A,,Clear,330,2013-03-06 02:15:00
8:35 PM,46.4,19.4,34,30.32,10.0,NNW,6.9,-,N/A,,Clear,340,2013-03-06 02:35:00
8:55 PM,46.4,19.4,34,30.32,10.0,NNW,5.8,-,N/A,,Clear,340,2013-03-06 02:55:00
9:15 PM,46.4,19.4,34,30.32,10.0,NNW,6.9,-,N/A,,Clear,340,2013-03-06 03:15:00
9:35 PM,46.4,19.4,34,30.33,10.0,NNW,4.6,-,N/A,,Clear,340,2013-03-06 03:35:00
9:55 PM,44.6,19.4,37,30.34,10.0,North,5.8,-,N/A,,Clear,350,2013-03-06 03:55:00
10:15 PM,44.6,19.4,37,30.34,10.0,North,4.6,-,N/A,,Clear,350,2013-03-06 04:15:00
10:35 PM,44.6,19.4,37,30.35,10.0,North,5.8,-,N/A,,Clear,350,2013-03-06 04:35:00
10:55 PM,44.6,19.4,37,30.35,10.0,North,3.5,-,N/A,,Clear,360,2013-03-06 04:55:00
11:15 PM,44.6,21.2,39,30.35,10.0,North,4.6,-,N/A,,Clear,350,2013-03-06 05:15:00
11:35 PM,42.8,19.4,39,30.34,10.0,North,4.6,-,N/A,,Clear,350,2013-03-06 05:35:00
11:55 PM,42.8,21.2,42,30.34,10.0,North,4.6,-,N/A,,Clear,360,2013-03-06 05:55:00